Temp
18 16 17 19 18 20 21 22 22 24 25 24 24 22 20 19 20 19 19 19 19 19 19 19 19 19 20 20 20 20 20 20 20 20 20 20 19 20 20 20 20 20 20 20
16 17 19 19 19 20 20 20 21 23 25 24 24 23 21 20 20 20 20 19 19 19 19 19 19 19 19 20 20 20 20 20 20 20 20 20 20 20 20 20 20 20 20 20
17 18 20 20 20 20 19 20 21 22 24 25 23 22 22 21 21 21 20 20 19 19 19 19 20 20 20 20 20 20 20 20 20 20 20 20 20 20 20 20 20 20 20 20
18 21 21 20 20 21 18 22 23 23 24 24 23 19 19 22 21 21 21 21 20 20 20 20 20 20 20 20 20 20 20 21 21 21 20 20 20 20 20 20 20 20 20 20
20 20 21 21 21 22 21 23 23 23 23 22 23 20 20 21 21 20 21 22 21 20 20 21 20 21 21 20 21 21 21 21 21 21 20 21 21 21 21 20 20 20 19 20
19 23 22 22 23 23 24 23 22 22 22 22 22 22 21 20 21 22 22 22 22 21 21 21 23 22 22 21 21 21 21 21 21 21 21 21 21 21 21 21 20 20 20 20
13 19 22 23 21 22 22 19 18 18 19 21 20 21 25 22 24 24 23 23 22 22 22 21 21 21 22 22 21 22 21 21 21 21 21 21 21 21 21 21 21 20 20 20
9 16 20 22 21 20 21 21 17 18 17 21 20 20 23 25 25 25 25 24 24 23 22 22 23 22 22 23 21 22 22 22 22 22 21 21 21 21 21 21 21 21 20 20
9 11 14 16 17 22 21 20 21 19 18 18 20 21 23 25 23 24 24 25 25 23 23 23 23 23 23 22 22 23 23 22 22 22 22 22 22 22 22 22 21 21 21 20
9 8 12 14 16 21 22 20 21 16 20 19 19 21 24 23 23 23 23 25 25 25 24 23 24 24 24 23 23 23 24 24 23 23 22 22 22 22 22 22 22 21 21 21
9 8 11 12 16 18 20 21 20 20 18 21 18 21 20 23 24 23 24 25 25 25 24 24 25 24 24 23 22 23 23 24 23 23 23 22 22 22 22 22 22 22 22 21
8 7 8 10 14 14 14 16 20 20 19 17 18 23 25 24 23 23 24 27 29 27 25 25 25 24 24 23 23 23 23 23 23 24 23 23 23 23 22 22 22 22 22 22
9 8 8 12 14 13 12 13 14 17 17 18 20 23 24 23 24 25 25 27 28 27 26 25 24 24 24 24 24 23 23 23 24 24 24 23 23 23 23 22 22 22 22 22
9 6 7 9 9 9 9 11 12 13 16 22 22 24 23 24 23 23 26 27 28 28 27 25 25 25 25 25 24 23 24 24 24 24 24 24 23 23 23 23 23 23 23 22
6 6 7 7 8 9 9 10 12 13 16 19 24 21 22 21 23 23 25 28 28 29 27 25 25 25 25 24 24 24 24 24 25 24 24 25 24 24 24 24 23 23 23 23
4 7 5 7 10 11 11 12 15 16 17 18 22 22 22 20 20 19 20 23 25 27 27 26 26 26 25 25 25 25 25 25 26 25 26 26 25 24 24 24 24 24 24 24
3 5 5 6 10 10 14 15 17 17 16 16 21 20 17 17 17 16 16 19 25 27 27 27 27 27 26 25 25 26 26 27 27 26 26 26 25 25 25 25 24 24 24 24
3 5 5 5 9 11 14 13 15 15 15 15 15 17 18 17 17 16 16 15 19 25 27 28 27 26 26 26 25 25 25 26 26 25 26 26 26 26 25 25 25 25 25 25
6 5 6 7 8 13 13 11 11 12 13 12 13 15 17 19 19 17 15 16 15 18 25 27 27 26 25 25 25 25 24 25 25 26 26 27 27 27 26 26 26 26 25 25
5 5 6 6 7 13 10 9 10 12 12 12 11 11 14 16 14 13 15 16 16 19 22 24 26 26 26 25 25 25 25 25 27 27 28 27 27 26 27 27 27 27 26 25
5 5 6 6 8 10 8 7 10 13 11 11 9 9 10 12 13 15 16 16 17 17 20 22 23 25 25 26 26 26 27 27 27 27 26 26 26 26 26 26 26 26 26 25
6 6 7 6 8 10 6 7 9 7 9 9 8 8 9 10 14 15 16 16 17 17 18 19 21 22 22 23 24 25 25 25 26 26 26 26 26 26 26 26 26 25 25 24
6 5 6 5 5 7 7 5 6 6 7 6 7 8 8 10 12 15 15 16 16 17 17 18 19 19 21 22 23 24 23 24 24 25 25 24 24 25 25 25 25 25 25 25
5 5 5 4 7 6 5 5 5 5 5 5 7 8 9 10 11 12 14 15 16 16 17 18 19 19 19 20 21 22 23 24 25 25 25 25 25 24 24 25 25 25 25 25
3 4 4 5 6 5 7 5 6 6 6 7 9 9 10 10 11 12 13 14 14 15 16 16 18 19 19 19 20 20 21 22 24 24 24 24 25 24 24 24 24 24 24 25
3 4 4 4 4 4 4 5 6 5 7 7 9 10 11 11 11 12 13 13 14 14 15 16 17 18 19 20 20 21 21 21 22 22 23 23 23 23 23 24 24 24 24 24
Height
1461 1470 1466 1460 1471 1471 1472 1474 1476 1467 1464 1469 1470 1475 1478 1482 1490 1493 1496 1499 1501 1503 1510 1516 1519 1524 1528 1532 1537 1541 1546 1550 1554 1558 1561 1565 1567 1570 1573 1575 1577 1580 1582 1584
1463 1463 1457 1462 1467 1472 1474 1478 1476 1467 1458 1465 1469 1471 1473 1475 1474 1481 1489 1495 1495 1501 1508 1512 1515 1519 1524 1527 1532 1537 1541 1546 1551 1555 1559 1563 1566 1569 1572 1575 1577 1579 1581 1583
1455 1450 1454 1458 1462 1469 1471 1475 1473 1475 1463 1461 1469 1480 1477 1478 1481 1484 1487 1488 1492 1492 1499 1504 1508 1513 1519 1522 1526 1531 1536 1542 1547 1551 1556 1560 1564 1567 1569 1571 1575 1578 1580 1583
1450 1443 1449 1454 1456 1459 1473 1459 1462 1466 1473 1481 1467 1502 1478 1469 1471 1475 1476 1480 1483 1487 1492 1497 1502 1507 1511 1516 1522 1527 1532 1537 1542 1547 1552 1555 1558 1561 1564 1568 1573 1576 1579 1581
1439 1440 1443 1449 1445 1449 1452 1453 1458 1462 1470 1475 1470 1486 1469 1461 1466 1466 1463 1467 1473 1478 1482 1487 1492 1498 1503 1512 1516 1522 1527 1532 1537 1543 1547 1552 1554 1557 1562 1567 1571 1574 1576 1578
1438 1432 1433 1435 1440 1444 1446 1452 1456 1459 1465 1480 1469 1473 1467 1459 1450 1447 1454 1459 1464 1470 1475 1480 1485 1492 1498 1505 1510 1515 1521 1526 1532 1537 1543 1547 1550 1554 1558 1563 1567 1570 1573 1575
1450 1434 1430 1431 1441 1441 1446 1463 1488 1491 1485 1475 1462 1471 1444 1433 1427 1432 1441 1445 1453 1461 1467 1473 1479 1484 1489 1496 1501 1507 1514 1519 1526 1531 1537 1542 1546 1550 1555 1559 1563 1567 1569 1570
1479 1455 1433 1429 1432 1442 1444 1451 1478 1492 1490 1467 1455 1466 1436 1420 1419 1421 1429 1436 1444 1452 1456 1461 1467 1473 1479 1486 1494 1498 1504 1512 1519 1524 1530 1536 1541 1545 1550 1554 1558 1562 1565 1568
1481 1467 1442 1438 1437 1430 1439 1446 1440 1463 1467 1476 1452 1442 1422 1417 1418 1420 1425 1433 1438 1442 1449 1451 1458 1463 1471 1477 1483 1488 1496 1504 1511 1517 1524 1530 1535 1540 1544 1549 1553 1557 1561 1565
1481 1481 1451 1441 1434 1420 1422 1429 1449 1461 1469 1478 1457 1445 1429 1422 1419 1416 1417 1422 1426 1431 1436 1446 1452 1455 1460 1466 1475 1483 1489 1496 1503 1511 1518 1523 1529 1534 1538 1543 1548 1551 1556 1559
1477 1480 1458 1449 1439 1432 1428 1430 1433 1435 1452 1453 1469 1443 1413 1408 1406 1410 1409 1411 1414 1418 1425 1432 1438 1447 1453 1462 1468 1473 1482 1489 1497 1504 1511 1517 1522 1527 1533 1536 1541 1546 1550 1554
1479 1479 1473 1458 1434 1433 1441 1437 1424 1437 1448 1450 1448 1422 1398 1397 1398 1401 1402 1403 1404 1407 1413 1422 1429 1439 1447 1454 1460 1464 1472 1480 1489 1496 1503 1510 1516 1521 1526 1530 1534 1540 1544 1549
1476 1477 1475 1447 1432 1436 1444 1441 1437 1429 1431 1437 1440 1413 1396 1395 1394 1395 1396 1398 1399 1402 1406 1412 1424 1434 1438 1445 1451 1457 1465 1472 1481 1489 1496 1502 1508 1513 1517 1523 1528 1532 1537 1542
1473 1478 1475 1465 1467 1472 1464 1450 1446 1451 1443 1413 1408 1410 1402 1397 1395 1393 1389 1390 1393 1397 1400 1405 1413 1422 1429 1435 1443 1451 1458 1465 1474 1481 1488 1494 1499 1504 1511 1516 1521 1525 1530 1535
1474 1478 1473 1470 1463 1464 1464 1456 1440 1445 1430 1423 1399 1405 1397 1393 1388 1385 1384 1377 1377 1380 1388 1395 1403 1412 1420 1429 1437 1446 1452 1459 1466 1474 1480 1486 1493 1499 1505 1509 1513 1518 1522 1526
1477 1472 1474 1462 1452 1453 1454 1441 1431 1417 1416 1411 1396 1391 1384 1388 1385 1385 1382 1371 1369 1367 1376 1385 1394 1403 1413 1420 1427 1437 1446 1453 1460 1466 1472 1479 1486 1491 1496 1501 1506 1510 1514 1518
1476 1474 1474 1462 1455 1455 1435 1428 1419 1410 1410 1406 1399 1393 1394 1388 1389 1390 1385 1373 1368 1366 1372 1378 1386 1396 1405 1414 1421 1430 1437 1448 1453 1458 1465 1472 1479 1484 1488 1494 1499 1502 1506 1510
1472 1473 1474 1466 1456 1445 1422 1424 1421 1419 1411 1409 1405 1394 1392 1389 1391 1390 1390 1380 1373 1372 1375 1376 1383 1393 1401 1410 1418 1429 1436 1442 1446 1453 1460 1466 1472 1477 1483 1487 1491 1495 1499 1502
1460 1471 1466 1463 1460 1431 1416 1426 1434 1426 1423 1421 1415 1402 1397 1391 1383 1392 1392 1387 1384 1376 1373 1381 1389 1395 1403 1411 1418 1427 1433 1437 1443 1448 1453 1459 1464 1470 1475 1479 1484 1488 1492 1494
1458 1466 1461 1465 1460 1418 1431 1425 1431 1423 1427 1426 1423 1415 1406 1393 1407 1413 1403 1396 1388 1382 1379 1382 1390 1397 1406 1412 1418 1424 1429 1433 1437 1442 1447 1454 1461 1466 1469 1473 1478 1482 1486 1488
1457 1458 1461 1462 1451 1433 1437 1428 1419 1421 1445 1436 1430 1424 1419 1417 1420 1417 1410 1404 1398 1394 1391 1391 1393 1398 1404 1408 1414 1419 1425 1428 1434 1441 1445 1452 1456 1460 1464 1469 1473 1477 1479 1482
1450 1454 1452 1453 1438 1428 1440 1429 1430 1443 1439 1437 1432 1430 1426 1425 1425 1421 1418 1413 1408 1404 1401 1399 1399 1402 1405 1407 1411 1416 1421 1427 1432 1437 1441 1446 1450 1453 1458 1462 1466 1469 1472 1474
1456 1463 1459 1461 1452 1447 1446 1447 1446 1442 1439 1435 1433 1431 1431 1429 1426 1425 1424 1419 1416 1414 1411 1408 1406 1407 1408 1410 1414 1417 1423 1428 1431 1433 1436 1440 1444 1448 1451 1454 1457 1461 1464 1466
1462 1462 1462 1461 1452 1447 1443 1438 1440 1438 1434 1434 1434 1432 1430 1428 1427 1425 1425 1424 1422 1420 1416 1413 1410 1410 1412 1413 1416 1419 1423 1427 1430 1431 1434 1436 1438 1441 1445 1448 1452 1454 1456 1458
1471 1468 1464 1457 1451 1445 1438 1437 1434 1431 1430 1429 1429 1430 1427 1427 1427 1427 1425 1425 1424 1424 1422 1419 1415 1413 1415 1417 1418 1420 1421 1424 1427 1429 1431 1433 1435 1437 1439 1441 1444 1446 1450 1452
1472 1465 1462 1457 1456 1451 1440 1429 1428 1428 1426 1429 1426 1420 1424 1426 1426 1427 1426 1425 1425 1424 1423 1420 1417 1415 1416 1417 1417 1418 1420 1422 1425 1427 1428 1429 1430 1432 1434 1436 1439 1440 1442 1443
Wind_Speed
11 4 18 22 7 4 2 4 5 4 7 15 18 12 20 29 25 26 31 32 34 38 40 39 39 42 39 35 36 36 35 32 30 28 26 26 24 21 17 15 13 11 10 7
5 14 11 8 8 10 7 8 7 5 4 6 14 16 16 20 31 35 34 34 36 35 36 40 44 45 43 41 40 39 39 36 34 31 29 27 28 27 23 19 16 15 14 11
7 7 15 11 10 13 11 14 10 4 4 8 10 7 10 14 19 25 32 37 35 40 40 42 47 48 50 44 44 43 40 38 40 36 32 32 29 30 30 27 22 17 15 14
9 18 10 14 16 12 12 11 15 9 6 6 7 5 7 20 20 19 31 39 39 40 40 44 46 47 54 52 50 46 44 41 40 41 36 33 29 37 36 32 27 22 19 17
13 10 11 14 20 11 11 6 10 5 7 6 8 2 6 12 19 22 26 36 41 44 46 48 51 53 51 54 52 52 48 45 41 45 41 35 30 31 36 35 29 28 23 20
8 20 9 20 10 14 4 5 5 2 4 10 10 10 6 7 18 23 28 35 38 42 44 49 50 49 51 51 52 54 52 50 46 46 45 39 32 31 31 32 32 27 27 26
9 8 7 8 9 11 12 5 4 3 6 10 9 8 18 11 20 24 23 37 41 40 43 44 47 50 52 54 54 53 56 53 51 48 48 42 36 31 31 29 29 29 26 26
4 6 5 2 14 10 12 13 6 6 4 9 7 7 11 13 20 31 39 40 42 45 46 48 48 51 53 53 55 57 55 55 54 50 51 45 39 33 32 30 28 30 28 25
4 6 10 14 13 8 8 15 10 2 1 2 3 6 10 7 10 15 26 27 36 40 46 49 49 50 51 52 57 57 56 56 55 52 51 48 41 36 35 33 29 30 28 25
1 6 3 8 9 12 16 6 5 1 15 10 4 4 8 9 10 10 12 28 35 42 46 42 48 50 53 55 57 56 56 54 55 54 53 49 43 37 35 34 33 32 30 27
2 3 7 6 5 3 1 12 4 6 6 12 4 7 6 9 11 14 14 29 36 42 45 47 54 50 53 50 54 56 57 56 56 53 52 52 46 41 37 36 35 33 31 30
1 3 5 9 14 19 9 7 11 8 9 4 3 16 6 10 9 9 15 30 41 42 45 47 52 51 49 49 51 56 56 57 57 54 52 51 47 44 41 39 37 35 35 33
1 0 4 9 2 5 6 8 10 8 3 9 9 12 6 7 6 11 16 22 32 39 41 46 44 44 50 54 55 54 55 56 55 55 54 53 50 48 45 41 39 38 36 36
5 3 5 5 3 8 12 22 22 4 5 16 17 3 8 8 8 10 18 21 23 36 42 44 47 50 51 57 55 54 55 54 52 53 54 52 51 49 45 41 40 39 38 37
2 3 7 8 10 16 21 26 27 15 14 8 14 12 12 10 11 8 20 37 32 34 44 45 47 50 50 51 50 53 54 53 50 50 52 50 46 44 42 39 39 38 38 37
1 2 2 5 11 23 21 23 19 22 18 17 13 12 6 8 8 15 19 25 27 34 44 47 49 50 50 54 55 55 54 51 47 48 47 44 46 45 42 39 38 37 37 36
4 2 2 6 7 17 10 6 13 12 14 4 8 2 8 9 13 18 24 19 15 33 42 47 49 50 52 54 53 55 54 50 49 48 47 45 45 44 41 39 39 39 38 36
6 4 3 3 8 5 9 12 8 16 20 21 17 14 8 15 19 31 30 29 9 12 29 38 43 43 48 50 48 48 49 51 50 49 47 45 44 43 41 41 40 38 37 37
7 5 3 1 5 7 2 7 10 6 13 21 18 20 9 6 23 25 35 30 26 22 19 25 31 35 35 39 38 44 45 45 44 45 44 42 41 39 40 40 39 35 36 36
7 5 2 1 5 5 5 16 27 13 8 20 22 20 18 17 9 6 27 29 30 31 28 22 25 29 29 31 32 37 43 40 41 41 40 39 39 38 38 35 34 32 33 32
5 3 4 7 5 2 10 26 25 6 1 17 23 26 27 10 6 17 25 28 31 30 34 35 30 27 22 29 32 32 35 39 38 34 36 35 36 36 37 35 34 33 33 33
3 2 0 3 4 4 23 11 7 3 9 14 21 24 27 25 15 20 23 27 28 30 29 31 33 32 29 23 26 29 28 28 26 28 33 29 30 32 33 35 35 34 35 35
4 3 1 1 3 9 19 17 17 9 9 16 21 27 26 25 19 19 22 23 24 25 25 26 26 26 26 26 24 25 20 17 15 14 13 17 21 23 25 28 29 32 31 31
7 14 3 7 6 17 28 10 18 17 17 20 20 22 25 20 20 20 18 19 20 20 21 20 21 22 21 19 19 19 17 14 12 12 11 9 7 10 16 20 24 27 30 30
4 7 5 5 6 25 9 31 32 30 22 23 25 22 22 17 16 18 17 15 18 17 17 16 16 18 16 14 13 11 10 9 9 10 10 9 9 9 10 14 19 24 26 28
14 5 4 3 18 13 24 35 28 24 20 18 23 30 26 23 20 15 16 11 12 16 16 15 15 13 13 12 10 7 4 2 2 6 9 11 12 13 14 16 19 23 26 29
Wind_Direction
182 157 205 208 182 177 207 225 228 227 207 189 204 184 179 184 190 190 196 197 197 204 203 201 202 207 207 205 208 204 202 203 203 200 199 204 212 212 205 208 206 221 236 237
122 218 208 177 173 209 248 267 268 321 226 129 206 221 188 183 194 192 195 203 202 204 205 206 207 206 208 209 209 210 210 211 211 210 210 213 213 217 220 220 214 220 230 233
185 231 184 206 185 198 213 220 237 162 202 220 169 246 202 198 207 203 211 208 207 200 205 205 211 213 206 213 212 214 214 219 219 217 216 220 223 224 222 221 222 218 224 228
218 241 196 203 216 193 228 190 231 223 192 210 155 242 219 209 208 202 215 205 208 206 208 209 210 214 211 215 216 217 218 221 221 219 218 222 226 222 223 225 226 224 227 227
213 189 207 212 220 197 243 168 222 197 201 174 219 195 251 199 224 213 210 207 207 206 205 210 212 215 215 215 219 221 221 222 222 220 219 222 227 229 228 228 228 226 227 230
247 241 218 224 221 220 256 214 235 155 201 242 218 208 247 183 215 219 210 208 206 206 208 211 214 213 214 217 219 223 223 224 224 223 222 224 230 232 229 228 225 222 227 230
334 274 257 205 202 222 208 122 245 258 202 230 188 205 232 213 216 213 207 210 208 205 208 209 210 214 217 215 216 221 223 224 225 226 223 227 231 236 232 228 223 218 216 221
30 294 193 268 206 203 208 202 193 194 187 237 189 210 232 208 228 216 211 219 211 209 207 209 211 212 217 219 216 221 222 224 225 226 225 229 232 237 235 231 229 223 220 222
5 266 324 319 317 218 210 212 199 145 201 340 205 250 276 216 232 219 217 203 204 208 211 211 210 213 212 216 219 221 224 224 225 225 227 229 233 237 236 234 230 228 227 224
122 294 291 322 326 266 220 171 175 211 229 240 279 244 220 189 218 217 207 205 204 207 210 206 207 210 217 222 221 223 224 224 225 226 227 230 234 237 237 235 233 231 230 228
138 193 294 346 232 354 337 220 238 168 169 225 250 250 220 216 193 201 210 212 213 208 206 203 208 208 215 215 217 222 222 223 224 226 228 229 233 236 237 237 235 234 233 230
103 231 280 255 274 297 256 278 205 204 219 246 224 244 265 221 219 196 211 221 227 217 208 203 207 203 205 210 217 225 224 224 224 227 230 231 235 237 238 238 237 235 234 232
138 93 325 329 20 45 26 328 354 324 109 209 214 247 216 266 280 235 227 225 220 215 208 200 199 198 204 210 216 222 225 228 228 228 232 233 235 237 238 239 240 239 237 234
154 218 242 208 318 327 296 303 302 268 283 228 237 242 248 251 230 261 261 248 232 228 213 200 195 200 205 212 212 220 227 231 231 231 232 233 235 236 238 241 242 243 241 240
83 250 243 258 282 289 280 277 280 274 252 241 239 231 228 230 252 287 301 287 279 237 207 197 196 199 203 207 207 220 229 230 231 232 232 233 234 236 237 239 240 242 244 242
6 298 325 261 293 281 268 266 266 256 258 269 252 253 190 63 42 4 342 288 232 202 195 196 199 197 199 206 210 218 225 229 232 232 232 231 232 234 233 233 236 239 241 242
135 137 261 276 298 314 258 261 332 70 38 315 234 301 312 51 53 26 356 342 239 199 194 192 195 196 202 206 210 217 224 227 228 229 231 231 231 231 232 234 236 238 240 242
144 131 251 275 318 220 137 42 334 62 43 23 7 0 141 108 83 40 18 16 33 205 204 195 195 197 202 207 210 216 221 224 225 229 232 233 234 235 236 237 239 242 244 246
148 144 208 98 288 286 323 41 342 345 34 17 358 14 360 95 53 28 19 29 32 81 150 189 194 198 198 203 206 214 217 220 225 230 234 236 236 236 238 241 243 245 247 249
132 190 125 84 256 211 335 333 314 268 39 3 4 3 15 35 62 345 15 38 54 77 102 135 178 194 198 202 208 214 218 219 227 232 236 238 240 241 242 244 246 248 249 251
178 147 211 231 258 223 341 323 313 155 91 351 6 8 11 35 59 34 39 44 54 67 85 100 125 143 169 197 203 212 219 229 231 238 238 239 245 247 250 252 254 254 256 256
88 158 273 277 239 198 14 345 33 8 354 358 358 359 358 1 22 41 39 39 44 53 68 86 98 99 104 124 177 193 202 217 223 229 243 245 248 249 252 254 256 256 258 260
65 351 301 312 296 321 337 319 301 315 352 348 341 342 348 352 10 35 34 34 36 40 54 68 82 92 97 108 120 131 141 162 169 176 204 234 242 245 251 255 253 253 255 258
9 15 11 319 30 331 325 30 344 339 328 321 324 326 339 344 4 6 9 21 26 26 35 51 74 79 81 91 103 110 124 145 165 164 164 171 194 227 236 238 242 247 252 255
318 295 294 253 306 317 237 326 325 327 327 329 321 320 325 330 336 353 2 4 4 13 21 30 49 64 69 80 90 102 116 137 166 184 196 205 214 224 238 247 249 249 249 251
342 341 347 313 299 292 290 305 323 319 324 322 319 312 309 313 316 322 344 338 347 350 359 10 20 37 46 59 68 72 84 107 211 241 244 245 248 249 251 255 252 251 253 255